Location: *
(50.3440°N, 18.6237°E)
Time: 17:08:40
(UTC+00:00)

Meteor 1-14 Rocket - Pass Details

Date: 30 November 2020
Orbit: 834 x 919 km, 81.3° (Epoch: 22 January)

Event Time Altitude Azimuth Distance (km) Brightness Sun altitude
Rises 16:13:08 0° 349° (N) 3,544 7.4 -13.3°
Reaches altitude 10° 16:15:39 10° 353° (N) 2,608 6.6 -13.7°
Maximum altitude 16:21:33 60° 74° (ENE) 1,049 4.4 -14.6°
Drops below altitude 10° 16:27:27 10° 153° (SSE) 2,609 6.6 -15.5°
Sets 16:29:57 0° 157° (SSE) 3,546 7.4 -15.9°
